This is the latest recevied weather packets stored in our database for station/object N8QF. If no packets are shown the sender has not sent any weather packets the latest 1 day(s).
| Time | Temp. | Humidity | Pressure | Rain* | Wind** | Luminosity | Snow |
|---|---|---|---|---|---|---|---|
| 1778111384 | 13.33° C | 56% | 1012.8 hPa | 11.94 mm | - | - | - |
| 1778111084 | 13.33° C | 56% | 1012.6 hPa | 11.94 mm | - | - | - |
| 1778107777 | 13.89° C | 57% | 1012.5 hPa | 11.94 mm | - | - | - |
| 1778107477 | 13.89° C | 57% | 1012.6 hPa | 11.94 mm | - | - | - |
| 1778106274 | 13.89° C | 54% | 1012.9 hPa | 11.94 mm | - | - | - |
| 1778105974 | 13.89° C | 52% | 1012.9 hPa | 11.94 mm | - | - | - |
| 1778104773 | 14.44° C | 52% | 1013 hPa | 11.94 mm | - | - | - |
| 1778103869 | 14.44° C | 53% | 1012.8 hPa | 11.94 mm | - | - | - |
| 1778103268 | 14.44° C | 52% | 1012.8 hPa | 11.94 mm | - | - | - |
| 1778102066 | 14.44° C | 49% | 1012.4 hPa | 11.94 mm | - | - | - |
| 1778101765 | 14.44° C | 52% | 1012.4 hPa | 11.94 mm | - | - | - |
| 1778100564 | 13.89° C | 53% | 1012.2 hPa | 11.94 mm | - | - | - |
| 1778099962 | 13.89° C | 50% | 1012.4 hPa | 11.94 mm | - | - | - |
| 1778098761 | 13.89° C | 52% | 1012.3 hPa | 11.94 mm | - | - | - |
| 1778098461 | 14.44° C | 53% | 1012.4 hPa | 11.94 mm | - | - | - |
| 1778097560 | 14.44° C | 53% | 1012.3 hPa | 11.94 mm | - | - | - |
| 1778097260 | 14.44° C | 52% | 1012.3 hPa | 11.94 mm | - | - | - |
| 1778096059 | 14.44° C | 53% | 1012.1 hPa | 11.94 mm | - | - | - |
| 1778094558 | 15° C | 48% | 1012.1 hPa | 11.94 mm | - | - | - |
| 1778093357 | 14.44° C | 50% | 1012 hPa | 11.94 mm | - | - | - |
| 1778092753 | 15° C | 51% | 1012 hPa | 11.94 mm | - | - | - |
| 1778090946 | 15° C | 54% | 1011.9 hPa | 11.94 mm | - | - | - |
| 1778089445 | 15° C | 56% | 1012.4 hPa | 11.94 mm | - | - | - |
| 1778088353 | 14.44° C | 56% | 1012.4 hPa | 11.94 mm | - | - | - |
| 1778088244 | 14.44° C | 56% | 1012.4 hPa | 11.94 mm | - | - | - |
* Rain since midnight (hover to see other rain measurements)
** Current wind speed in m/s (hover to see current wind gust speed)